Gainesville, FL

7:12 AM EDT on September 03, 2015 (GMT -0400)
Gainesville Regional | | Change Station
CLOSE
Current Station
Airport
Location: Gainesville,
Elevation: 151 ft
Nearby Weather Stations

Elev 151 ft 29.69 °N, 82.28 °W | Updated 19 minutes ago

Clear
Clear
75 °F
Feels Like 75 °F
N
4
Wind Variable Wind from West

Today
High -- | Low -- °F
--% Chance of Precip.
Yesterday
High -- | Low -- °F
Precip. -- in
7:07 AM 7:49 PM
Waning Gibbous, 71% visible
Pressure 29.96 in
Visibility 8.0 miles
Clouds Clear
Dew Point 74 °F
Humidity 96%
Rainfall 0.00 in
Snow Depth Not available.
UV 0 out of 12
Pollen 3.10 out of 12
Air Quality Not available.
Flu Activity Not available.
METAR KGNV 031053Z 27003KT 8SM CLR 24/23 A2997 RMK AO2 SLP145 T02390233
Pressure 29.96 in
Visibility 8.0 miles
Clouds Clear
Dew Point 74 °F
Humidity 96%
Rainfall 0.00 in
Snow Depth Not available.
UV 0 out of 12
Pollen 3.10 out of 12
Air Quality Not available.
Flu Activity Not available.
METAR KGNV 031053Z 27003KT 8SM CLR 24/23 A2997 RMK AO2 SLP145 T02390233

10-Day Weather Forecast

×

Almanac

Astronomy

Sep. 03, 2015 Rise Set
Actual Time
Civil Twilight
Nautical Twilight
Astronomical Twilight
Moon
Length of Visible Light
Length of Day
Tomorrow will be .
, % of the Moon is Illuminated

Today's Extremes

State Highs State Lows

Community

WunderPhotos

Upload Photos

1,851,933 photos uploaded!

WunderBlogs® & News

Nearby

Air Quality

  Air Quality AQ Index Pollutant
Not available.

Snow Depth

Station Depth Elevation

Earthquake Activity

City Distance Mag. Time & Date
Minimum magnitude displayed is 2.5.

Coastal Water Temperatures

Place Temperature

Stations

Nearby Weather Stations

Station Location Temp. Windchill Dew Point Humidity Wind Precip. Elev Updated Type